Weather History for Glendale Luke AFB, AZ

Change the Weather History Date:

Friday, June 6, 2014

  Actual Average Record
Temperature  
Mean Temperature 86 °F -  
Max Temperature 104 °F 102 °F 112 °F (1957)
Min Temperature 69 °F 64 °F 51 °F (1925)
Cooling Degree Days 22    
Growing Degree Days 36 (Base 50)    
Moisture  
Dew Point 23 °F    
Average Humidity 10    
Maximum Humidity 25    
Minimum Humidity 4    
Precipitation  
Precipitation 0.00 in - - ()
Sea Level Pressure  
Sea Level Pressure 29.62 in    
Wind  
Wind Speed 7 mph (WSW)    
Max Wind Speed 15 mph    
Max Gust Speed 22 mph    
Visibility 9 miles    
Events      
Averages and records for this station are not official NWS values.
T = Trace of Precipitation, MM = Missing Value Source: NWS Daily Summary

Daily Weather History Graph

Daily Weather History Graph

Search for Another Location

Airport:

Trip Planner

Search our weather history database for the weather conditions in past years. The results will help you decide how hot, cold, wet, or windy it might be!

Date:

Astronomy

Jun. 06, 2014 Rise Set
Actual Time 5:19 AM MST 7:37 PM MST
Civil Twilight 4:50 AM MST 8:06 PM MST
Nautical Twilight 4:15 AM MST 8:41 PM MST
Astronomical Twilight 3:37 AM MST 9:19 PM MST
Moon 1:17 PM MST (6/6) 12:53 AM MST (6/6)
Length of Visible Light 15h 15m
Length of Day
14h 17m
First Quarter, 59% of the Moon is Illuminated
Jun 6
First Quarter
Jun 12
Full
Jun 19
Last Quarter
Jun 27
New
Jul 5
First Quarter

Hourly Weather History & Observations

Time (MST) Temp. Dew Point Humidity Pressure Visibility Wind Dir Wind Speed Gust Speed Precip Events Conditions
12:58 AM 79.9 °F 22.6 °F 12% 29.60 in 8.0 mi NE 8.1 mph - N/A   Clear
1:58 AM 73.4 °F 31.3 °F 21% 29.60 in 6.0 mi NNW 6.9 mph - N/A   Haze
2:58 AM 73.2 °F 23.4 °F 15% 29.60 in 6.0 mi NNW 5.8 mph - N/A   Haze
3:58 AM 69.1 °F 26.2 °F 20% 29.61 in 6.0 mi North 5.8 mph - N/A   Haze
4:58 AM 69.8 °F 32.0 °F 25% 29.62 in 7.0 mi North 2.3 mph - N/A   Clear
5:58 AM 71.2 °F 29.7 °F 21% 29.64 in 7.0 mi North 4.6 mph - N/A   Clear
6:58 AM 74.5 °F 31.6 °F 21% 29.66 in 10.0 mi NE 4.6 mph - N/A   Clear
7:58 AM 82.0 °F 25.2 °F 12% 29.68 in 7.0 mi NE 3.5 mph - N/A   Clear
8:58 AM 86.7 °F 24.6 °F 10% 29.68 in 10.0 mi ENE 2.3 mph - N/A   Clear
9:58 AM 91.0 °F 22.5 °F 8% 29.68 in 10.0 mi Variable 4.6 mph - N/A   Clear
10:58 AM 94.8 °F 24.8 °F 8% 29.67 in 10.0 mi SSE 4.6 mph - N/A   Clear
11:58 AM 97.9 °F 24.6 °F 7% 29.66 in 10.0 mi South 6.9 mph - N/A   Partly Cloudy
12:58 PM 101.5 °F 23.5 °F 6% 29.63 in 10.0 mi SE 3.5 mph - N/A   Partly Cloudy
1:58 PM 103.6 °F 20.8 °F 5% 29.62 in 10.0 mi WSW 10.4 mph - N/A   Clear
2:40 PM 104.0 °F 15.8 °F 4% 29.64 in 10.0 mi South 13.8 mph - N/A   Clear
2:58 PM 104.2 °F 16.0 °F 4% 29.60 in 10.0 mi SSW 9.2 mph 19.6 mph N/A   Clear
3:07 PM 104.0 °F 17.6 °F 5% 29.63 in 10.0 mi SSW 15.0 mph 21.9 mph N/A   Clear
3:58 PM 104.2 °F 16.0 °F 4% 29.57 in 10.0 mi SW 10.4 mph - N/A   Clear
4:58 PM 104.4 °F 16.2 °F 4% 29.57 in 10.0 mi SW 15.0 mph - N/A   Clear
5:58 PM 103.8 °F 15.8 °F 4% 29.56 in 10.0 mi SW 11.5 mph - N/A   Clear
6:58 PM 101.7 °F 19.4 °F 5% 29.57 in 10.0 mi SW 6.9 mph - N/A   Clear
7:58 PM 94.8 °F 18.5 °F 6% 29.58 in 10.0 mi West 8.1 mph - N/A   Clear
8:58 PM 90.9 °F 19.2 °F 7% 29.59 in 10.0 mi West 6.9 mph - N/A   Clear
9:58 PM 86.7 °F 26.4 °F 11% 29.60 in 10.0 mi Calm Calm - N/A   Clear
10:58 PM 89.2 °F 18.1 °F 7% 29.60 in 10.0 mi WSW 3.5 mph - N/A   Clear
11:58 PM 77.9 °F 32.7 °F 19% 29.61 in 10.0 mi NE 5.8 mph - N/A   Clear